Weather in Krutovo

Russia / Vladimir Oblast     55°53′37″N   39°25′33″E
temp.,
°C
wind,
m/s
gust,
m/s
humid.,
%
clouds,
%
prec.,
mm/h
press.,
hPa
HPBL,
m
1 august, sun
sun100:00+15w25719 0.0 100977
03:00+15w247770 0.0 101068
06:00+16wsw2378100 0.0 101195
09:00+22sw245637 0.0 1011501
12:00+26sw4639100 0.0 10111460
15:00+27sw3639100 0.0 10102053
18:00+19s3686100 1.1 1011159
21:00+17sse239658 2.6 101073
2 august, mon
mon200:00+18ssw239492 0.0 101058
03:00+18wsw2294100 0.1 101048
06:00+18sw2395100 0.3 101086
09:00+22sse247994 0.9 1009362
12:00+29ssw4745100 0.0 10081538
15:00+30s6942100 0.0 10062048
18:00+29s494765 0.0 1004853
21:00+19se311925 1.4 1004200
3 august, tue
tue300:00+18se3993100 0.0 1002166
03:00+19sse2498100 2.4 1003112
06:00+18ssw4997100 0.0 1004474
09:00+19sw4785100 0.0 1004612
12:00+19sw3883100 0.2 1006777
15:00+18w479187 1.5 1007591
18:00+18wnw468212 0.1 1009766
21:00+15w23955 0.1 101058
4 august, wed
wed400:00+14wsw24964 0.0 101176
03:00+13w28975 0.0 1012175
06:00+13wnw258819 0.0 1013149
09:00+20wnw23550 0.0 1014679
12:00+23wnw334247 0.0 10142151
15:00+21nnw246073 0.0 1015378
18:00+19nnw247937 0.6 1016124
21:00+15n2286100 0.8 101712
5 august, thu
thu500:00+13n228435 0.0 101814
03:00+12nne22865 0.0 101925
06:00+12ene248218 0.0 101983
09:00+20ese2446100 0.0 1019528
12:00+23ese2237100 0.0 10181668
15:00+24e223997 0.0 10171803
18:00+21ene2356100 0.0 101752
21:00+16e3781100 0.9 1017134